Volver al catálogo

DELTA 1 DEB

ActivoSSO
NORAD 7136·DEBRIS·🇺🇸 United States

Lanzado Nov 6, 1973 desde Vandenberg Space Force Base

Loading…

Próximos Pases (próximas 24 horas)

TLE

ActualizadoSource: Space-Track

Época: Sep 14, 2026, 04:49 UTC

1 07136U 73086DA  26257.20089456  .00000080  00000-0  77525-3 0  9994
2 07136 101.6052 233.4330 0043677 276.9631  96.8929 12.53977089412655

Sigue DELTA 1 DEB en tiempo real con AllMySat

Download on the App Store